Tracking 18987 objects as of 25-Feb-2018
HD Live streaming from Space Station
objects crossing your sky now

NOAA 16 DEB

Track NOAA 16 DEB now!
10-day predictions


NORAD ID: 41512
Int'l Code: 2000-055ML
Perigee: 793.0 km
Apogee: 856.7 km
Inclination: 98.9 °
Period: 101.2 minutes
Semi major axis: 7195 km
RCS: Unknown
Launch date: September 21, 2000
Source: United States (US)
Launch site: AIR FORCE WESTERN TEST RANGE (AFWTR)

Note: This is SATELLITE DEBRIS
aabbcc
Your satellite tracking list
Your tracking list is empty




NASA's NSSDC Master Catalog

Two Line Element Set (TLE):
1 41512U 00055ML  18055.02008930 +.00000677 +00000-0 +32244-3 0  9992
2 41512 098.8850 143.9164 0044220 256.6838 102.9406 14.22258265100258
Source of the keplerian elements: AFSPC